Location: Berlin
(42.3812°N, 71.6370°W)
Time: 22:34:13
(UTC+00:00)

Cosmos 2061 Rocket - Pass Details

Date: 15 November 2025
Orbit: 964 x 1012 km, 82.9° (Epoch: 13 December)

Event Time Altitude Azimuth Distance (km) Brightness Sun altitude
Rises 09:30:10 0° 351° (N) 3,663 6.9 -23.5°
Reaches altitude 10° 09:32:40 10° 350° (N) 2,711 6.2 -23.1°
Maximum altitude 09:38:52 81° 265° (W) 982 3.8 -21.9°
Drops below altitude 10° 09:45:02 10° 179° (S) 2,700 6.4 -20.8°
Sets 09:47:32 0° 178° (S) 3,647 7.1 -20.3°
